Home > Weather > Bern > Past weeks

Flag for Switzerland Past Weather in Bern, Bern, Switzerland — Yesterday and Last 2 Weeks

Now
75 °F

Scattered clouds.


Feels Like: 78 °F
Forecast: 50 / 77 °F
Wind: 7 mph from Northwest

Location: Bern / Belp

Current Time: May 26, 2016 at 4:43:19 PM

Latest Report: May 26, 2016 at 3:50 PM


Visibility: N/A

Pressure: 29.95 "Hg (28.17 "Hg at 533m altitude)

Humidity: 44%

Dew Point: 52 °F

Location of BernLocation

Past Weather in Bern — Graph

°F

Bern Temperature Yesterday

Maximum temperature yesterday: 68 °F (at 2:50 PM)
Minimum temperature yesterday: 37 °F (at 5:20 AM)
Average temperature yesterday: 53 °F

High & Low Weather Summary for the Past Weeks

 TemperatureHumidityPressure
High79 °F (May 21, 6:20 PM)100% (May 12, 3:50 AM)30.18 "Hg (May 12, 3:50 AM)
Low36 °F (May 16, 4:50 AM)34% (May 21, 4:50 PM)29.53 "Hg (May 11, 6:50 PM)
Average53 °F82%29.94 "Hg
* Reported May 11 3:20 PM — May 26 3:20 PM, Bern, Weather by CustomWeather, © 2016

Note: Actual official high and low records may vary slightly from our data, if they occured in-between our weather recording intervals... More about our weather records

Advertising

Bern Weather History for the Previous 24 Hours

Scroll right to see more
 ConditionsComfort  
Time TempWeatherWind HumidityBarometerVisibility
3:20 PM
Thu, May 26
75 °FPassing clouds.5 mph41%29.98 "HgN/A
2:50 PM73 °FPassing clouds.6 mph50%29.98 "HgN/A
2:20 PM73 °FPassing clouds.5 mph50%29.98 "HgN/A
1:50 PM72 °FPassing clouds.3 mph53%29.98 "HgN/A
1:20 PM72 °FSunny.3 mph61%29.98 "Hg10 mi
12:50 PM70 °FSunny.3 mph60%29.98 "Hg10 mi
12:20 PM68 °FSunny.3 mph69%29.98 "Hg10 mi
11:50 AM66 °FPassing clouds.3 mph73%30.01 "HgN/A
11:20 AM66 °FSunny.3 mph73%30.01 "Hg10 mi
10:50 AM64 °FSunny.2 mph68%30.01 "Hg10 mi
10:20 AM63 °FSunny.2 mph73%30.01 "Hg10 mi
9:50 AM61 °FPassing clouds.5 mph77%30.01 "HgN/A
9:20 AM59 °FScattered clouds.6 mph82%30.01 "HgN/A
8:50 AM59 °FPartly sunny.5 mph82%30.01 "HgN/A
8:20 AM57 °FScattered clouds.3 mph88%30.01 "HgN/A
7:50 AM55 °FPassing clouds.3 mph100%30.04 "HgN/A
7:20 AM52 °FPassing clouds.1 mph100%30.04 "HgN/A
6:50 AM50 °FScattered clouds.No wind100%30.01 "HgN/A
6:20 AM48 °FFog.No wind100%30.01 "HgN/A
5:50 AM48 °FPassing clouds.1 mph100%30.01 "Hg5 mi
4:50 AM50 °FPassing clouds.1 mph100%30.01 "HgN/A
4:20 AM50 °FPassing clouds.1 mph100%30.01 "HgN/A
3:50 AM50 °FOvercast.1 mph100%30.01 "HgN/A
3:20 AM50 °FMostly cloudy.2 mph100%30.01 "HgN/A
2:50 AM48 °FPartly cloudy.1 mph100%30.01 "HgN/A
2:20 AM48 °FFog.1 mph100%30.01 "Hg2 mi
1:50 AM48 °FPassing clouds.No wind100%30.01 "Hg3 mi
1:20 AM48 °FFog.1 mph100%30.01 "Hg2 mi
12:50 AM50 °FFog.2 mph100%30.01 "Hg1 mi
12:20 AM50 °FFog.1 mph100%30.01 "Hg3 mi
11:50 PM
Wed, May 25
52 °FFog.1 mph100%30.01 "Hg2 mi
11:20 PM54 °FPassing clouds.1 mph100%30.01 "HgN/A
10:50 PM54 °FPassing clouds.1 mph100%30.01 "HgN/A
10:20 PM54 °FPassing clouds.1 mph100%30.01 "HgN/A
9:50 PM55 °FPartly sunny.2 mph100%29.98 "HgN/A
9:20 PM57 °FPartly sunny.2 mph94%29.98 "HgN/A
8:50 PM57 °FScattered clouds.3 mph94%29.98 "HgN/A
8:20 PM57 °FPartly sunny.2 mph94%29.98 "HgN/A
7:50 PM57 °FSprinkles. Partly sunny.3 mph100%29.98 "HgN/A
7:20 PM59 °FSprinkles. Partly sunny.1 mph82%29.98 "HgN/A
6:50 PM59 °FSprinkles. Partly sunny.3 mph77%29.98 "HgN/A
6:20 PM61 °FLight rain. Partly sunny.12 mph68%29.95 "HgN/A
5:50 PM64 °FBroken clouds.10 mph56%29.95 "HgN/A
5:20 PM64 °FPartly sunny.2 mph64%29.95 "HgN/A
4:50 PM66 °FPartly sunny.6 mph60%29.95 "HgN/A
4:20 PM66 °FPartly sunny.7 mph52%29.95 "HgN/A
Weather by CustomWeather, © 2016

See weather overviewHow to use our weather pages